This is the latest recevied weather packets stored in our database for station/object OE5XFR. If no packets are shown the sender has not sent any weather packets the latest 10 day(s).
| Time | Temp. | Humidity | Pressure | Rain* | Wind** | Luminosity | Snow |
|---|---|---|---|---|---|---|---|
| 1777852635 | 18.33° C | 30% | 1014 hPa | 0 mm | - | - | - |
| 1777851915 | 18.33° C | 30% | 1014 hPa | 0 mm | - | - | - |
| 1777851195 | 18.33° C | 31% | 1014 hPa | 0 mm | - | - | - |
| 1777850476 | 17.78° C | 33% | 1014 hPa | 0 mm | - | - | - |
| 1777849755 | 16.67° C | 38% | 1014 hPa | 0 mm | - | - | - |
| 1777849036 | 15.56° C | 41% | 1014 hPa | 0 mm | - | - | - |
| 1777848315 | 13.89° C | 48% | 1014 hPa | 0 mm | - | - | - |
| 1777847595 | 13.33° C | 52% | 1014 hPa | 0 mm | - | - | - |
| 1777846875 | 13.33° C | 54% | 1014 hPa | 0 mm | - | - | - |
| 1777846155 | 13.89° C | 50% | 1013 hPa | 0 mm | - | - | - |
| 1777845436 | 13.89° C | 51% | 1013 hPa | 0 mm | - | - | - |
| 1777844716 | 13.89° C | 51% | 1013 hPa | 0 mm | - | - | - |
| 1777843995 | 15° C | 50% | 1013 hPa | 0 mm | - | - | - |
| 1777843275 | 15.56° C | 46% | 1013 hPa | 0 mm | - | - | - |
| 1777842555 | 16.11° C | 43% | 1013 hPa | 0 mm | - | - | - |
| 1777841835 | 16.11° C | 45% | 1013 hPa | 0 mm | - | - | - |
| 1777841115 | 17.22° C | 44% | 1013 hPa | 0 mm | - | - | - |
| 1777840395 | 17.22° C | 38% | 1013 hPa | 0 mm | - | - | - |
| 1777839675 | 17.22° C | 40% | 1013 hPa | 0 mm | - | - | - |
| 1777838955 | 17.78° C | 39% | 1013 hPa | 0 mm | - | - | - |
| 1777838235 | 18.33° C | 37% | 1013 hPa | 0 mm | - | - | - |
| 1777837515 | 18.89° C | 37% | 1013 hPa | 0 mm | - | - | - |
| 1777836795 | 19.44° C | 35% | 1013 hPa | 0 mm | - | - | - |
| 1777836075 | 20° C | 28% | 1013 hPa | 0 mm | - | - | - |
| 1777835355 | 20.56° C | 26% | 1014 hPa | 0 mm | - | - | - |
* Rain latest hour (hover to see other rain measurements)
** Current wind speed in m/s (hover to see current wind gust speed)